User: anonymous   Login
Location: Dunedin
(45.8670°S, 170.5000°E)
Time: 15:29:08
(UTC+13:00)
Language:

BREEZE-M DEB (TANK) - Orbit

View from above orbital plane
View from above orbital plane
View from above satellite
View from above satellite

Ground track
Ground track

The orbit data is extracted from the following two-line orbital elements,

1 34712U 09016C   19080.56258194 +.00001449 +00000-0 +16881-3 0  9996
2 34712 046.0536 145.6013 5073638 319.4574 012.1517 05.52088690195508
Epoch (UTC): 21 March 2019 13:30:07
Eccentricity: 0.5073638
inclination: 46.0536°
perigee height: 283 km
apogee height: 14005 km
right ascension of ascending node: 145.6013°
argument of perigee: 319.4574°
revolutions per day: 5.52088690
mean anomaly at epoch: 12.1517°
orbit number at epoch: 19550

The dashed part of the orbit path shows where the satellite is in the earth's shadow,  

DLR